Location: Estes Park
(40.3770°N, 105.5210°W)
Time: 17:11:33
(UTC-06:00)

N. Korean satellite - Pass Details

Date: 11 October 2017
Orbit: 459 x 517 km, 97.2° (Epoch: 21 October)

Event Time Altitude Azimuth Distance (km) Brightness Sun altitude
Rises 20:07:59 0° 209° (SSW) 2,557 10.5 -19.9°
Reaches altitude 10° 20:10:58 10° 237° (WSW) 1,668 9.9 -20.4°
Maximum altitude 20:12:47 13° 267° (W) 1,464 10.0 -20.8°
Drops below altitude 10° 20:14:35 10° 298° (WNW) 1,658 10.3 -21.1°
Sets 20:17:33 0° 326° (NNW) 2,530 10.8 -21.7°
